Location: Northern Prairie Star Party
(53.2167°N, 112.5333°W)
Time: 06:12:50
(UTC-06:00)

Daily predictions for brighter satellites

Satellite Brightness Start Highest point End
(mag) Time Altitude Azimuth Time Altitude Azimuth Time Altitude Azimuth
Cosmos 1821 Rocket 4.1 20:51:15 10° SSW 20:57:21 83° W 21:03:29 10° N
Cosmos 1066 Rocket 4.4 20:53:14 10° N 20:58:50 60° ENE 21:04:31 10° SSE
Cosmos 1626 Rocket 3.6 20:54:23 10° N 20:58:51 83° ENE 21:03:13 10° SSE
Iridium 4 Rocket 3.5 20:54:59 10° N 21:00:09 59° E 21:04:48 10° SSE
Cosmos 1605 Rocket 4.0 20:54:18 10° S 21:00:33 68° E 21:06:44 10° NNE
H-2A R/B 3.0 20:58:52 10° ESE 21:02:27 29° ENE 21:06:05 10° N
Cosmos 1697 Rocket 3.4 20:58:35 10° SSE 21:03:26 30° ESE 21:08:17 10° NE
Cosmos 2208 Rocket 4.1 20:58:18 10° SSW 21:03:39 79° ESE 21:09:07 10° NNE
Cosmos 2084 4.4 21:00:08 10° WNW 21:03:55 42° SW 21:07:53 10° SSE
Cosmos 2298 Rocket 4.2 20:58:57 10° NNW 21:04:18 82° WSW 21:09:38 10° SSE
Cosmos 1937 Rocket 3.6 21:00:06 10° NNW 21:05:23 74° ENE 21:10:41 10° SSE
YAOGAN 11 4.2 21:04:06 10° SSE 21:08:32 62° ENE 21:12:55 10° N
Cosmos 1602 Rocket 3.8 21:04:09 10° NNW 21:08:39 81° W 21:13:05 10° S
Cosmos 1455 Rocket 3.2 21:05:19 10° SSW 21:09:40 80° WNW 21:14:05 10° N
Envisat 3.3 21:05:14 10° SE 21:10:07 49° ENE 21:15:02 10° N
Cosmos 2100 Rocket 4.5 21:04:43 10° SSE 21:10:27 39° E 21:16:09 10° NNE
Cosmos 2278 3.7 21:07:43 10° SSW 21:13:24 77° ESE 21:19:08 10° NNE
Cosmos 990 Rocket 4.1 21:10:52 10° NNW 21:16:09 70° ENE 21:21:22 10° SE
Cosmos 1570 Rocket 4.2 21:11:22 10° SSW 21:16:40 80° WNW 21:21:58 10° NNE
Cosmos 1842 4.5 21:14:58 10° N 21:18:18 26° ENE 21:21:26 11° SE
Lacrosse 5 2.8 21:13:50 10° WNW 21:18:38 43° SW 21:23:23 10° SSE
H-2A R/B 3.7 21:15:22 10° S 21:19:10 51° W 21:23:04 10° NNW
Cosmos 2061 Rocket 4.4 21:14:58 10° SSE 21:20:49 42° E 21:26:38 10° NNE
ARGOS 4.3 21:16:33 10° ESE 21:21:05 29° ENE 21:25:38 10° N
Cosmos 1980 Rocket 3.0 21:22:12 10° SSE 21:27:01 29° ESE 21:31:51 10° NE
Cosmos 2369 3.7 21:22:16 10° SSW 21:27:58 86° ESE 21:33:44 10° NNE
Cosmos 1975 2.8 21:24:24 10° S 21:28:30 85° ESE 21:32:38 10° NNE
Lacrosse 5 rocket 4.0 21:28:01 10° WSW 21:28:35 10° SW 21:29:09 10° SW
H-2A R/B 3.6 21:27:33 10° E 21:30:58 19° NE 21:34:22 10° N
SPOT 5 3.2 21:28:40 10° SE 21:33:26 49° ENE 21:37:57 10° N
ERS-1 Rocket 3.0 21:30:09 10° SSE 21:35:11 87° WSW 21:40:16 10° NNW
EO 1 Delta rocket 4.2 21:30:56 10° N 21:35:33 72° WNW 21:40:40 10° SSW
NOSS 2-1 (D) 4.3 21:33:04 10° WSW 21:37:10 58° NW 21:42:16 10° NE
Cosmos 1666 4.0 21:35:55 15° SE 21:37:52 21° E 21:40:48 10° NE
NOSS 2-1 (C) 4.3 21:34:06 10° WSW 21:38:12 58° NW 21:43:18 10° NE
Cosmos 1459 Rocket 4.0 21:33:23 10° S 21:39:16 57° E 21:45:17 10° NNE
CZ-4 SHROUD 4.4 21:39:09 17° ESE 21:40:46 26° ENE 21:43:24 10° N
Cosmos 2058 Rocket 4.1 21:41:00 14° SE 21:44:08 28° E 21:48:00 10° NNE
CZ-4 DEB 3.5 21:41:12 10° S 21:44:17 53° W 21:47:24 10° NNW
Cosmos 1656 3.6 21:40:59 10° SSW 21:46:34 74° ESE 21:52:06 10° NE
Cosmos 2263 Rocket 2.9 21:41:27 10° NNW 21:46:44 41° NE 21:50:51 16° ESE
Cosmos 1763 Rocket 4.0 21:43:08 10° SSE 21:47:42 35° ESE 21:52:17 10° NE
Cosmos 1606 Rocket 4.0 21:44:12 10° SSE 21:48:22 43° E 21:52:36 10° NNE
Cosmos 2098 Rocket 4.4 21:42:46 10° SSE 21:48:42 38° E 21:53:36 10° NNE
Cosmos 1500 3.2 21:45:01 10° S 21:48:46 87° W 21:52:36 10° N
SPOT 1/Viking Rocket 4.0 21:45:55 15° SE 21:49:54 45° ENE 21:54:51 10° N
Cosmos 1340 2.7 21:47:52 10° NNW 21:51:42 87° W 21:55:15 12° S
Cosmos 1125 Rocket 3.6 21:46:54 10° NNW 21:52:06 61° ENE 21:55:59 18° SE
YAOGAN 6 2.9 21:50:42 18° SE 21:53:14 51° ENE 21:56:52 10° N
Terra 3.3 21:54:47 15° E 21:57:22 23° ENE 22:01:06 10° N
Cosmos 2322 Rocket 3.3 21:58:38 18° SE 22:00:38 22° ESE 22:04:52 10° NE
Cosmos 2297 Rocket 4.4 22:00:53 10° NW 22:05:01 21° W 22:09:10 10° SSW
Cosmos 468 Rocket 3.9 22:00:09 10° SSW 22:05:17 85° ESE 22:10:28 10° NNE
Meteor 1-21 4.4 21:59:36 10° NNW 22:05:24 78° W 22:11:12 10° S
Cosmos 1939 Rocket 3.7 22:01:38 10° S 22:05:42 53° W 22:09:50 10° NNW
Genesis I 4.0 22:06:11 10° NW 22:10:01 44° NE 22:12:08 23° E
Cosmos 841 Rocket 3.7 22:06:10 10° S 22:11:10 47° ESE 22:16:09 10° NE
USA 215 3.3 22:06:05 17° ESE 22:11:17 88° NNE 22:17:52 10° WNW
Cosmos 1726 Rocket 3.6 22:07:22 12° S 22:11:20 60° E 22:15:44 10° NNE
Cosmos 405 Rocket 3.3 22:09:00 10° N 22:12:35 39° ENE 22:13:54 28° ESE
Meteor 2-9 Rocket 4.4 22:08:47 14° SSE 22:13:15 48° E 22:18:24 10° NNE
Cosmos 2360 4.5 22:09:24 10° S 22:14:49 45° ESE 22:20:16 10° NE
SL-08 R/B 4.5 22:10:51 10° S 22:16:59 65° E 22:23:05 10° NNE
Cosmos 1814 Rocket 4.0 22:11:43 10° SSW 22:17:03 89° ESE 22:22:24 10° NNE
Cosmos 1802 Rocket 4.0 22:11:31 10° S 22:17:57 87° E 22:24:26 10° N
MetOp-A 4.2 22:15:10 15° SSE 22:19:39 81° WSW 22:25:04 10° NNW
ASTEX 1 3.4 22:15:50 10° N 22:20:53 74° E 22:25:07 14° S
Cosmos 540 Rocket 4.4 22:22:20 25° ESE 22:23:12 27° E 22:27:27 10° NE
Cosmos 2016 Rocket 3.9 22:21:41 10° S 22:27:50 87° E 22:34:07 10° N
Cosmos 1743 3.3 22:25:01 10° SSW 22:28:53 58° WNW 22:32:47 10° N
IGS 5A 4.5 22:28:34 26° E 22:29:47 32° ENE 22:33:30 10° N
Cosmos 1953 Rocket 4.4 22:26:07 10° NNW 22:30:25 49° W 22:34:19 12° SSW
Cosmos 372 Rocket 3.9 22:26:55 10° NNW 22:32:04 79° ENE 22:34:40 30° SE
ATLAS CENTAUR R/B 4.1 22:28:23 10° WNW 22:32:15 23° NNW 22:35:58 10° NE
CZ-4C R/B 4.0 22:33:23 32° ESE 22:34:56 46° ENE 22:39:07 10° N
Cosmos 2278 Rocket 4.1 22:31:47 10° NNW 22:36:03 21° NNE 22:40:17 10° ENE
H-2A R/B 3.2 22:35:03 13° SSW 22:38:24 38° W 22:42:19 10° NNW
Cosmos 2173 Rocket 4.5 22:33:53 10° SSW 22:40:11 62° WNW 22:46:28 10° N
Cosmos 1238 4.5 22:37:09 10° NNW 22:40:28 64° W 22:41:18 42° SSW
Cosmos 2228 2.9 22:44:11 33° S 22:46:02 73° E 22:50:19 10° NNE
SL-08 RB Rocket 3.7 22:44:03 32° SSE 22:46:13 88° WSW 22:50:52 10° NNW
Cosmos 1697 Rocket 3.2 22:41:29 10° SW 22:47:05 61° NW 22:52:42 10° NNE
SWAS 4.4 22:51:37 33° S 22:53:21 61° ESE 22:57:39 10° NE
deb Chang Zheng 4 4.2 22:50:02 10° N 22:54:26 59° WNW 22:58:49 10° SSW
Cosmos 1864 Rocket 4.4 22:50:50 14° S 22:56:11 87° W 23:02:22 10° N
SL-16 R/B 2.3 22:54:57 30° S 22:57:26 51° ESE 23:02:55 10° NE
CZ-4B R/B 3.3 22:53:37 10° NNE 22:58:22 63° ESE 22:59:59 39° SSE
NOAA 11 4.5 22:55:11 25° S 22:58:26 64° WSW 23:03:54 10° NNW
Cosmos 1844 Rocket 3.6 22:53:26 10° NNW 22:58:37 37° NE 23:01:08 25° E
GP-B 3.3 22:54:40 10° N 22:59:01 50° E 22:59:41 45° ESE
Tsikada Rocket 4.5 22:53:04 10° NNW 22:59:23 61° W 23:04:10 18° SSW
Lacrosse 5 4.4 22:59:46 10° WSW 23:00:28 10° WSW 23:01:11 10° SW
ARGOS 3.5 22:57:55 25° S 23:01:00 62° WSW 23:06:23 10° NNW
SL-19 R/B 4.1 22:55:51 10° NNE 23:01:27 82° ESE 23:04:48 24° SSW
Cosmos 1707 2.7 22:59:23 10° N 23:03:18 63° ENE 23:03:39 59° ESE
Okean 3 Rocket 3.8 22:59:27 10° N 23:03:49 53° ENE 23:04:31 47° ESE
Cosmos 2346 Rocket 4.4 22:58:18 10° N 23:04:36 89° ENE 23:07:36 33° S
H-2A R/B 1.9 23:08:08 43° SSE 23:09:49 87° WSW 23:14:47 10° NNW
Cosmos 1980 Rocket 2.6 23:05:00 10° SW 23:10:39 64° NW 23:16:22 10° NNE
Cosmos 2360 Rocket 3.1 23:11:52 29° E 23:11:52 29° E 23:16:10 10° NE
Cosmos 1666 3.9 23:10:53 18° SW 23:13:20 39° WNW 23:16:58 10° N
Cosmos 332 Rocket 3.7 23:14:33 47° S 23:15:51 69° ESE 23:20:45 10° NNE
Cosmos 1378 3.9 23:13:31 10° N 23:16:51 40° ENE 23:16:51 40° ENE
Cosmos 921 Rocket 4.1 23:14:07 10° N 23:18:11 33° ENE 23:18:49 32° ENE
Cosmos 371 Rocket 3.4 23:18:51 52° ESE 23:18:58 52° ESE 23:23:41 10° NNE
Landsat 7 4.0 23:17:54 41° SSW 23:19:26 64° WSW 23:24:12 10° NNW
Cosmos 1408 Rocket 4.3 23:16:05 10° N 23:20:18 39° ENE 23:20:34 38° E
ALOS 2 4.5 23:19:58 18° ENE 23:20:42 19° ENE 23:23:44 10° NNE
Cosmos 2058 Rocket 4.3 23:18:15 13° SW 23:22:00 41° WNW 23:26:19 10° N
Cosmos 1437 4.2 23:19:27 10° N 23:21:48 31° NE 23:21:48 31° NE
Meteor 2-17 Rocket 4.4 23:20:22 27° SSW 23:23:54 82° WNW 23:30:00 10° N
Cosmos 783 Rocket 4.4 23:25:26 44° S 23:27:09 76° ESE 23:32:26 10° NNE
Cosmos 1763 Rocket 4.5 23:24:34 10° SW 23:29:27 44° NW 23:34:20 10° NNE
Cosmos 2263 Rocket 2.7 23:25:27 10° NW 23:30:49 49° WSW 23:32:32 36° SSW
Cosmos 2219 Rocket 4.4 23:33:22 10° ENE 23:33:22 10° ENE 23:33:39 10° ENE
Terra 2.0 23:33:41 50° SSW 23:34:44 65° WSW 23:39:30 10° NNW
Meteor 2-5 Rocket 4.2 23:29:58 10° NNW 23:35:50 60° W 23:38:07 36° SSW
CZ-4 R/B 3.9 23:31:47 10° NNE 23:36:32 78° WNW 23:38:00 45° SSW
CARTOSAT-1 3.9 23:35:59 52° SW 23:36:37 58° W 23:40:55 10° NNW
Cosmos 1076 Rocket 3.7 23:32:53 10° N 23:36:59 56° ENE 23:36:59 56° ENE
GEOS 3 Rocket 4.1 23:32:43 10° NE 23:36:41 41° E 23:36:41 41° E
Cosmos 1441 Rocket 3.3 23:35:16 10° NNW 23:39:04 75° WNW 23:39:04 75° WNW
Cosmos 2322 Rocket 2.2 23:40:22 22° SW 23:44:06 79° NW 23:49:46 10° NNE
BREEZE-M DEB (TANK) 4.2 23:38:41 10° WSW 23:43:19 28° SW 23:43:19 28° SW
Cosmos 1072 Rocket 4.4 23:45:24 49° S 23:47:13 79° E 23:53:25 10° NNE
Genesis I 4.4 23:44:04 10° WNW 23:47:08 33° WSW 23:47:08 33° WSW
Cosmos 2322 3.9 23:49:22 50° ESE 23:49:22 50° ESE 23:54:48 10° NE
Meteor 1-24 Rocket 3.9 23:44:36 10° NNW 23:50:39 74° W 23:52:19 49° S
Cosmos 2233 Rocket 4.5 23:48:18 23° SW 23:52:09 57° WNW 23:58:20 10° N
Cosmos 2237 Rocket 4.4 23:54:16 11° E 23:54:16 11° E 23:54:38 10° ENE
Lacrosse 4 Rocket 3.4 23:55:58 20° ENE 23:55:58 20° ENE 23:57:36 10° NE
SAR-Lupe-2 4.3 23:55:15 52° NW 23:55:15 52° NW 23:58:07 10° NNW
Cosmos 1766 Rocket 3.6 23:50:46 10° N 23:55:10 73° ENE 23:55:10 73° ENE
Cosmos 1953 4.0 23:57:11 24° NE 23:57:11 24° NE 23:59:25 10° NNE
Cosmos 2333 Rocket 4.3 23:57:40 14° E 23:57:40 14° E 23:59:17 10° ENE
